Time,TemperatureF,DewpointF,PressureIn,WindDirection,WindDirectionDegrees,WindSpeedMPH,WindSpeedGustMPH,Humidity,HourlyPrecipIn,Conditions,Clouds,dailyrainin,SoftwareType,DateUTC
2013-04-21 00:02:00,36.0,34.0,-100.00,SE,145,15.0,19.0,87,0.00,,,0.00,,2013-04-21 05:02:00,
2013-04-21 00:12:00,36.0,34.0,-100.00,SE,140,15.0,17.0,89,0.00,,,0.00,,2013-04-21 05:12:00,
2013-04-21 00:22:00,36.0,34.0,-100.00,SE,140,16.0,20.0,91,0.00,,,0.00,,2013-04-21 05:22:00,
2013-04-21 00:32:00,36.0,34.0,-100.00,SE,140,17.0,21.0,92,0.00,,,0.00,,2013-04-21 05:32:00,
2013-04-21 00:42:00,35.0,34.0,-100.00,SE,140,16.0,20.0,92,0.00,,,0.00,,2013-04-21 05:42:00,
2013-04-21 00:52:00,35.0,34.0,-100.00,SE,145,16.0,20.0,92,0.00,,,0.00,,2013-04-21 05:52:00,
2013-04-21 01:01:00,36.0,34.0,-100.00,SE,140,16.0,19.0,92,0.00,,,0.00,,2013-04-21 06:01:00,
2013-04-21 01:12:00,36.0,34.0,-100.00,SE,145,16.0,20.0,91,0.00,,,0.00,,2013-04-21 06:12:00,
2013-04-21 01:21:00,36.0,34.0,-100.00,SSE,150,13.0,19.0,90,0.00,,,0.00,,2013-04-21 06:21:00,
2013-04-21 01:32:00,36.0,34.0,-100.00,SSE,150,15.0,18.0,90,0.00,,,0.00,,2013-04-21 06:32:00,
2013-04-21 01:42:00,36.0,34.0,-100.00,SSE,150,16.0,19.0,90,0.00,,,0.00,,2013-04-21 06:42:00,
2013-04-21 01:51:00,36.0,34.0,-100.00,SE,145,15.0,20.0,88,0.00,,,0.00,,2013-04-21 06:51:00,
2013-04-21 02:01:00,36.0,34.0,-100.00,SSE,150,16.0,20.0,88,0.00,,,0.00,,2013-04-21 07:01:00,
2013-04-21 02:11:00,36.0,32.0,-100.00,SSE,150,16.0,19.0,88,0.00,,,0.00,,2013-04-21 07:11:00,
2013-04-21 02:21:00,36.0,32.0,-100.00,SE,145,14.0,18.0,88,0.00,,,0.00,,2013-04-21 07:21:00,
2013-04-21 02:31:00,36.0,34.0,-100.00,SSE,150,12.0,17.0,88,0.00,,,0.00,,2013-04-21 07:31:00,
2013-04-21 02:41:00,36.0,34.0,-100.00,SSE,155,13.0,16.0,90,0.00,,,0.00,,2013-04-21 07:41:00,
2013-04-21 02:52:00,35.0,34.0,-100.00,SE,145,14.0,16.0,91,0.00,,,0.00,,2013-04-21 07:52:00,
2013-04-21 03:01:00,35.0,34.0,-100.00,SSE,150,13.0,16.0,91,0.00,,,0.00,,2013-04-21 08:01:00,
2013-04-21 03:12:00,35.0,34.0,-100.00,SE,145,12.0,16.0,91,0.00,,,0.00,,2013-04-21 08:12:00,
2013-04-21 03:21:00,35.0,34.0,-100.00,SE,145,12.0,16.0,91,0.00,,,0.00,,2013-04-21 08:21:00,
2013-04-21 03:32:00,35.0,34.0,-100.00,SE,145,13.0,15.0,91,0.00,,,0.00,,2013-04-21 08:32:00,
2013-04-21 03:41:00,35.0,34.0,-100.00,SE,140,13.0,17.0,91,0.00,,,0.00,,2013-04-21 08:41:00,
2013-04-21 03:52:00,35.0,34.0,-100.00,SE,145,13.0,16.0,91,0.00,,,0.00,,2013-04-21 08:52:00,
2013-04-21 04:01:00,35.0,34.0,-100.00,SSE,150,13.0,16.0,92,0.00,,,0.00,,2013-04-21 09:01:00,
2013-04-21 04:11:00,35.0,34.0,-100.00,SE,145,15.0,17.0,93,0.00,,,0.00,,2013-04-21 09:11:00,
2013-04-21 04:21:00,35.0,34.0,-100.00,SSE,150,15.0,17.0,93,0.00,,,0.00,,2013-04-21 09:21:00,
2013-04-21 04:32:00,35.0,34.0,-100.00,SSE,155,15.0,17.0,93,0.00,,,0.00,,2013-04-21 09:32:00,
2013-04-21 04:43:00,35.0,34.0,-100.00,SSE,155,16.0,19.0,92,0.00,,,0.00,,2013-04-21 09:43:00,
2013-04-21 04:52:00,35.0,34.0,-100.00,SSE,155,16.0,19.0,92,0.00,,,0.00,,2013-04-21 09:52:00,
2013-04-21 05:02:00,35.0,34.0,-100.00,SSE,155,16.0,19.0,92,0.00,,,0.00,,2013-04-21 10:02:00,
2013-04-21 05:12:00,35.0,34.0,-100.00,SSE,155,15.0,18.0,92,0.00,,,0.00,,2013-04-21 10:12:00,
2013-04-21 05:22:00,35.0,34.0,-100.00,SSE,150,13.0,18.0,93,0.00,,,0.00,,2013-04-21 10:22:00,
2013-04-21 05:32:00,35.0,34.0,-100.00,SSE,150,13.0,17.0,93,0.00,,,0.00,,2013-04-21 10:32:00,
2013-04-21 05:42:00,35.0,34.0,-100.00,SSE,150,14.0,16.0,93,0.00,,,0.00,,2013-04-21 10:42:00,
2013-04-21 05:52:00,35.0,34.0,-100.00,SSE,150,17.0,20.0,94,0.00,,,0.00,,2013-04-21 10:52:00,
2013-04-21 06:02:00,35.0,34.0,-100.00,SSE,155,17.0,21.0,94,0.00,,,0.00,,2013-04-21 11:02:00,
2013-04-21 06:12:00,35.0,34.0,-100.00,SSE,155,16.0,21.0,94,0.00,,,0.00,,2013-04-21 11:12:00,
2013-04-21 06:22:00,35.0,34.0,-100.00,SSE,155,17.0,21.0,94,0.00,,,0.00,,2013-04-21 11:22:00,
2013-04-21 06:34:00,35.0,34.0,-100.00,SSE,165,17.0,21.0,94,0.00,,,0.00,,2013-04-21 11:34:00,
2013-04-21 06:42:00,35.0,34.0,-100.00,SSE,160,16.0,21.0,94,0.00,,,0.00,,2013-04-21 11:42:00,
2013-04-21 06:52:00,35.0,34.0,-100.00,SSE,155,14.0,18.0,95,0.00,,,0.00,,2013-04-21 11:52:00,
2013-04-21 07:02:00,35.0,34.0,-100.00,SSE,155,14.0,20.0,95,0.00,,,0.00,,2013-04-21 12:02:00,
2013-04-21 07:12:00,35.0,34.0,-100.00,SSE,160,14.0,20.0,95,0.00,,,0.00,,2013-04-21 12:12:00,
2013-04-21 07:22:00,35.0,34.0,-100.00,SSE,155,17.0,21.0,95,0.00,,,0.00,,2013-04-21 12:22:00,
2013-04-21 07:32:00,35.0,34.0,-100.00,SSE,155,17.0,23.0,95,0.00,,,0.00,,2013-04-21 12:32:00,
2013-04-21 07:42:00,35.0,34.0,-100.00,SSE,155,17.0,21.0,95,0.00,,,0.00,,2013-04-21 12:42:00,
2013-04-21 07:52:00,35.0,34.0,-100.00,SSE,155,18.0,21.0,95,0.00,,,0.00,,2013-04-21 12:52:00,
2013-04-21 08:01:00,36.0,34.0,-100.00,SSE,155,17.0,21.0,95,0.00,,,0.00,,2013-04-21 13:01:00,
2013-04-21 08:11:00,36.0,36.0,-100.00,SSE,155,19.0,24.0,95,0.00,,,0.00,,2013-04-21 13:11:00,
2013-04-21 08:21:00,36.0,36.0,-100.00,SSE,155,18.0,24.0,95,0.00,,,0.00,,2013-04-21 13:21:00,
2013-04-21 08:32:00,37.0,36.0,-100.00,SSE,155,19.0,24.0,95,0.00,,,0.00,,2013-04-21 13:32:00,
2013-04-21 08:42:00,37.0,36.0,-100.00,SSE,160,18.0,24.0,95,0.00,,,0.00,,2013-04-21 13:42:00,
2013-04-21 08:52:00,38.0,37.0,-100.00,SSE,160,22.0,26.0,94,0.00,,,0.00,,2013-04-21 13:52:00,
2013-04-21 09:02:00,38.0,37.0,-100.00,SSE,160,21.0,27.0,94,0.00,,,0.00,,2013-04-21 14:02:00,
2013-04-21 09:11:00,39.0,37.0,-100.00,SSE,160,22.0,27.0,93,0.00,,,0.00,,2013-04-21 14:11:00,
2013-04-21 09:21:00,40.0,37.0,-100.00,SSE,165,22.0,26.0,93,0.00,,,0.00,,2013-04-21 14:21:00,
2013-04-21 09:32:00,40.0,39.0,-100.00,SSE,160,20.0,26.0,92,0.00,,,0.00,,2013-04-21 14:32:00,
2013-04-21 09:42:00,41.0,39.0,-100.00,South,175,21.0,26.0,91,0.00,,,0.00,,2013-04-21 14:42:00,
2013-04-21 09:52:00,41.0,39.0,-100.00,SSE,165,22.0,29.0,91,0.00,,,0.00,,2013-04-21 14:52:00,
2013-04-21 10:02:00,42.0,39.0,-100.00,South,170,20.0,24.0,91,0.00,,,0.00,,2013-04-21 15:02:00,
2013-04-21 10:11:00,42.0,39.0,-100.00,South,175,20.0,24.0,90,0.00,,,0.00,,2013-04-21 15:11:00,
2013-04-21 10:22:00,42.0,39.0,-100.00,South,170,20.0,24.0,90,0.00,,,0.00,,2013-04-21 15:22:00,
2013-04-21 10:33:00,44.0,41.0,-100.00,South,180,20.0,24.0,89,0.00,,,0.00,,2013-04-21 15:33:00,
2013-04-21 10:42:00,44.0,41.0,-100.00,South,180,17.0,24.0,87,0.00,,,0.00,,2013-04-21 15:42:00,
2013-04-21 10:53:00,46.0,43.0,-100.00,SSW,195,17.0,22.0,86,0.00,,,0.00,,2013-04-21 15:53:00,
2013-04-21 11:03:00,47.0,43.0,-100.00,SSW,195,18.0,24.0,82,0.00,,,0.00,,2013-04-21 16:03:00,
2013-04-21 11:12:00,47.0,41.0,-100.00,South,185,19.0,24.0,82,0.00,,,0.00,,2013-04-21 16:12:00,
2013-04-21 11:22:00,49.0,43.0,-100.00,SSW,200,20.0,24.0,80,0.00,,,0.00,,2013-04-21 16:22:00,
2013-04-21 11:32:00,49.0,43.0,-100.00,SSW,195,18.0,25.0,79,0.00,,,0.00,,2013-04-21 16:32:00,
2013-04-21 11:42:00,49.0,43.0,-100.00,SSW,195,20.0,24.0,78,0.00,,,0.00,,2013-04-21 16:42:00,
2013-04-21 11:52:00,49.0,43.0,-100.00,SSW,195,17.0,22.0,78,0.00,,,0.00,,2013-04-21 16:52:00,
2013-04-21 12:02:00,50.0,43.0,-100.00,SSW,195,16.0,20.0,78,0.00,,,0.00,,2013-04-21 17:02:00,
2013-04-21 12:12:00,50.0,43.0,-100.00,SSW,195,16.0,19.0,78,0.00,,,0.00,,2013-04-21 17:12:00,
2013-04-21 12:22:00,52.0,45.0,-100.00,SSW,200,17.0,22.0,75,0.00,,,0.00,,2013-04-21 17:22:00,
2013-04-21 12:32:00,52.0,45.0,-100.00,SSW,205,16.0,21.0,74,0.00,,,0.00,,2013-04-21 17:32:00,
2013-04-21 12:42:00,52.0,43.0,-100.00,SSW,210,17.0,21.0,72,0.00,,,0.00,,2013-04-21 17:42:00,
2013-04-21 12:52:00,52.0,43.0,-100.00,SSW,210,16.0,22.0,72,0.00,,,0.00,,2013-04-21 17:52:00,
2013-04-21 13:02:00,51.0,43.0,-100.00,SW,215,16.0,21.0,73,0.00,,,0.00,,2013-04-21 18:02:00,
2013-04-21 13:11:00,52.0,43.0,-100.00,SW,215,14.0,21.0,73,0.00,,,0.00,,2013-04-21 18:11:00,
2013-04-21 13:22:00,52.0,45.0,-100.00,SW,220,11.0,16.0,74,0.00,,,0.00,,2013-04-21 18:22:00,
2013-04-21 13:32:00,51.0,45.0,-100.00,WSW,245,15.0,20.0,76,0.00,,,0.00,,2013-04-21 18:32:00,
2013-04-21 13:42:00,50.0,45.0,-100.00,SW,235,16.0,19.0,83,0.00,,,0.00,,2013-04-21 18:42:00,
2013-04-21 13:52:00,49.0,46.0,-100.00,WSW,240,11.0,18.0,87,0.00,,,0.00,,2013-04-21 18:52:00,
2013-04-21 14:02:00,49.0,46.0,-100.00,SW,235,14.0,17.0,91,0.00,,,0.00,,2013-04-21 19:02:00,
2013-04-21 14:11:00,49.0,46.0,-100.00,SW,235,14.0,17.0,92,0.00,,,0.00,,2013-04-21 19:11:00,
2013-04-21 14:21:00,49.0,48.0,-100.00,WSW,245,11.0,16.0,93,0.00,,,0.00,,2013-04-21 19:21:00,
2013-04-21 14:32:00,49.0,48.0,-100.00,WSW,240,14.0,16.0,94,0.00,,,0.00,,2013-04-21 19:32:00,
2013-04-21 14:42:00,49.0,48.0,-100.00,WSW,245,15.0,17.0,94,0.00,,,0.00,,2013-04-21 19:42:00,
2013-04-21 14:52:00,49.0,48.0,-100.00,WSW,240,16.0,17.0,94,0.00,,,0.00,,2013-04-21 19:52:00,
2013-04-21 15:02:00,49.0,48.0,-100.00,WSW,255,11.0,18.0,94,0.00,,,0.00,,2013-04-21 20:02:00,
2013-04-21 15:11:00,48.0,46.0,-100.00,WSW,250,12.0,15.0,94,0.00,,,0.00,,2013-04-21 20:11:00,
2013-04-21 15:22:00,49.0,48.0,-100.00,WSW,255,9.0,12.0,95,0.00,,,0.00,,2013-04-21 20:22:00,
2013-04-21 15:31:00,48.0,46.0,-100.00,West,265,10.0,12.0,96,0.00,,,0.00,,2013-04-21 20:31:00,
2013-04-21 15:41:00,48.0,48.0,-100.00,West,280,9.0,11.0,96,0.00,,,0.00,,2013-04-21 20:41:00,
2013-04-21 16:12:00,48.0,46.0,-100.00,West,270,7.0,9.0,97,0.00,,,0.00,,2013-04-21 21:12:00,
2013-04-21 16:21:00,47.0,46.0,-100.00,West,260,9.0,12.0,98,0.01,,,0.00,,2013-04-21 21:21:00,
2013-04-21 16:43:00,49.0,48.0,-100.00,WNW,295,9.0,14.0,99,0.00,,,0.00,,2013-04-21 21:43:00,
2013-04-21 16:53:00,49.0,48.0,-100.00,WNW,295,12.0,15.0,98,0.00,,,0.00,,2013-04-21 21:53:00,
2013-04-21 17:22:00,50.0,50.0,-100.00,WNW,295,14.0,18.0,98,0.00,,,0.00,,2013-04-21 22:22:00,
2013-04-21 17:33:00,49.0,48.0,-100.00,NW,305,16.0,20.0,97,0.00,,,0.00,,2013-04-21 22:33:00,
2013-04-21 18:12:00,47.0,46.0,-100.00,NW,320,16.0,20.0,97,0.00,,,0.00,,2013-04-21 23:12:00,
2013-04-21 18:32:00,45.0,45.0,-100.00,NNW,335,19.0,23.0,98,0.00,,,0.00,,2013-04-21 23:32:00,
2013-04-21 18:42:00,45.0,45.0,-100.00,NNW,335,16.0,24.0,98,0.00,,,0.00,,2013-04-21 23:42:00,
2013-04-21 18:52:00,44.0,43.0,-100.00,NNW,340,22.0,24.0,98,0.00,,,0.00,,2013-04-21 23:52:00,
2013-04-21 19:01:00,43.0,43.0,-100.00,NNW,345,19.0,26.0,98,0.00,,,0.00,,2013-04-22 00:01:00,
2013-04-21 19:11:00,43.0,43.0,-100.00,NNW,340,21.0,26.0,98,0.00,,,0.00,,2013-04-22 00:11:00,
2013-04-21 19:42:00,42.0,41.0,-100.00,NNW,335,19.0,24.0,98,0.00,,,0.00,,2013-04-22 00:42:00,
2013-04-21 19:51:00,42.0,41.0,-100.00,NNW,340,16.0,21.0,99,0.00,,,0.00,,2013-04-22 00:51:00,
2013-04-21 20:01:00,41.0,41.0,-100.00,NNW,340,18.0,20.0,99,0.00,,,0.00,,2013-04-22 01:01:00,
2013-04-21 20:12:00,41.0,41.0,-100.00,North,350,12.0,17.0,98,0.00,,,0.00,,2013-04-22 01:12:00,
2013-04-21 20:41:00,40.0,39.0,-100.00,NNW,340,12.0,16.0,99,0.00,,,0.00,,2013-04-22 01:41:00,
2013-04-21 20:52:00,40.0,39.0,-100.00,North,350,12.0,17.0,98,0.00,,,0.00,,2013-04-22 01:52:00,
2013-04-21 21:02:00,40.0,39.0,-100.00,NNW,345,12.0,15.0,98,0.00,,,0.00,,2013-04-22 02:02:00,
2013-04-21 21:11:00,40.0,39.0,-100.00,NNW,345,11.0,14.0,99,0.00,,,0.00,,2013-04-22 02:11:00,
2013-04-21 21:21:00,39.0,39.0,-100.00,North,0,11.0,13.0,98,0.00,,,0.00,,2013-04-22 02:21:00,
2013-04-21 21:42:00,38.0,37.0,-100.00,North,355,12.0,19.0,98,0.00,,,0.00,,2013-04-22 02:42:00,
2013-04-21 21:51:00,38.0,37.0,-100.00,North,0,12.0,18.0,98,0.00,,,0.00,,2013-04-22 02:51:00,
2013-04-21 22:02:00,38.0,37.0,-100.00,North,350,15.0,22.0,98,0.00,,,0.00,,2013-04-22 03:02:00,
2013-04-21 22:11:00,37.0,37.0,-100.00,North,5,14.0,20.0,98,0.00,,,0.00,,2013-04-22 03:11:00,
2013-04-21 23:03:00,36.0,36.0,-100.00,North,0,12.0,16.0,98,0.00,,,0.00,,2013-04-22 04:03:00,
2013-04-21 23:12:00,36.0,36.0,-100.00,North,5,12.0,17.0,98,0.00,,,0.00,,2013-04-22 04:12:00,
2013-04-21 23:23:00,36.0,36.0,-100.00,North,10,12.0,15.0,98,0.00,,,0.00,,2013-04-22 04:23:00,
2013-04-21 23:33:00,36.0,36.0,-100.00,NNE,20,14.0,19.0,98,0.00,,,0.00,,2013-04-22 04:33:00,
2013-04-21 23:43:00,36.0,36.0,-100.00,NNE,25,12.0,17.0,98,0.00,,,0.00,,2013-04-22 04:43:00,
2013-04-21 23:52:00,36.0,36.0,-100.00,NE,35,12.0,16.0,98,0.00,,,0.00,,2013-04-22 04:52:00,